Location: Forst
(46.9333°N, 15.4333°E)
Time: 14:32:39
(UTC+00:00)

NOSS 3-2 (A) - Pass Details

Date: 01 December 2020
Orbit: 789 x 1419 km, 63.4° (Epoch: 22 January)

Event Time Altitude Azimuth Distance (km) Brightness Sun altitude
Rises 16:44:08 0° 188° (S) 3,318 6.6 -15.3°
Reaches altitude 10° 16:46:37 10° 180° (S) 2,433 5.8 -15.7°
Maximum altitude 16:51:40 36° 115° (ESE) 1,390 3.9 -16.5°
Enters shadow 16:54:01 26° 74° (ENE) 1,731 4.2 -16.9°
